World > North America > United States > Utah

Ephraim, Utah Regional Weather

Lat: 39.36N, Lon: 111.58W
Wx Zone: UTZ014Web Search

Our weather pages are very print friendly and they make great conversation starters.

Feedback


°F Click to change Ephraim hourly weather to Imperial units.Click to change Ephraim hourly weather to Metric units. °C
Ephraim Weather Map
UTC Time: 4/15/2021, 13:05
Your Time:

Ephraim, UT Regional Weather

Expires:202104151300;;588937
ASUS45 KSLC 151210
RWRUT 

UTAH REGIONAL WEATHER ROUNDUP
NATIONAL WEATHER SERVICE SALT LAKE CITY UT
600 AM MDT THU APR 15 2021


UTZ013>016-019>022-027-151300-

SOUTHERN UTAH
  
CITY           SKY/WX    TMP DP  RH WIND       PRES   REMARKS
BRYCE CANYON   PTCLDY    25  20  81 W7        29.85F WCI  17          
CEDAR CITY     LGT SNOW  33  30  88 CALM      29.91R FOG              
MILFORD        CLOUDY    37  35  92 N5        29.89R WCI  33          
ST GEORGE      PTSUNNY   50  30  46 SE12      29.84R                  
HANKSVILLE     CLOUDY    48  30  49 MISG      29.83F                  
KANAB          CLEAR     41  18  38 CALM      29.86R                  
BLANDING         N/A     37  19  47 NE9       29.88S WCI  31          

$$

REGIONAL REPORTS     COLORADO/ARIZONA
  
CITY           SKY/WX    TMP DP  RH WIND       PRES   REMARKS
CRAIG, CO      CLOUDY    30  25  81 NE5       29.91F WCI  25          
GRAND JUNCTION CLOUDY    43  26  51 CALM      29.81S                  
RIFLE, CO      CLOUDY    40  28  62 CALM      29.87S                  
MONTROSE, CO   PTCLDY    40  25  55 N7        29.85S                  
CORTEZ, CO     PTCLDY    39  16  39 CALM      29.85S                  
COLORADO CITY    N/A     36  25  64 W5        29.88R WCI  32          
PAGE, AZ       MOCLDY    50  20  30 S7        29.78F                  
GRAND CANYON   CLEAR     33  15  47 SW8       29.89R WCI  26          
KINGMAN, AZ    CLEAR     46  19  34 S10       29.87R                  
FLAGSTAFF, AZ  CLEAR     37  18  46 SW7       29.90S WCI  32          

$$

REGIONAL REPORTS    NEVADA/IDAHO/WYOMING
  
CITY           SKY/WX    TMP DP  RH WIND       PRES   REMARKS
LAS VEGAS, NV  PTCLDY    56  25  30 VRB3      29.86R                  
ELY, NY        PTCLDY    16  12  84 S7        29.94R WCI   6          
ELKO, NV       CLOUDY    31  28  89 W5        29.96R WCI  26          
POCATELLO, ID  LGT SNOW  33  31  92 N10       29.95R FOG     WCI  25  
BURLEY, ID     LGT RAIN  34  32  92 W5        29.96R WCI  30          
EVANSTON, WY   FLURRIES  22  17  81 E9        29.91S WCI  12          
ROCK SPRINGS,  CLOUDY    21  15  78 NE15      29.94S WCI   8          
KEMMERER, WY   LGT SNOW  21  18  86 E5        29.93S WCI  15          

$$
  

SKY/WX - Weather  TMP - Temperature  DP - Dew Point  RH - Relative Humidity
WIND - Wind Direction/Speed PRES - Barometric Pressure VSB - Visibility
WCI - Wind Chill Index E13G22 Wind - East Wind 13 mph/Gusts of 22 mph